RJA814 OJAI-ORBI

Flight info

Callsign RJA814
Flight time 1h 4m
Altitude 39000
Route LUDAN A412 DAXEN L200 SILBO DCT BGD
Aircraft A20N/M-SDE2E3FGHIRWXY/LB1

Departure

Time 2026-04-20 16:41
Airport Queen Alia International Airport (OJAI)

Arrival

Time 2026-04-20 17:45
Airport Baghdad International Airport / New Al Muthana Air Base (ORBI)
Time Latitude Longitude Altitude Speed Heading
2026-04-20 16:02 31.72106 35.99003 2409 ft 0 kts 351°
2026-04-20 16:20 31.72100 35.99005 2410 ft 2 kts 351°
2026-04-20 16:21 31.72083 35.99007 2410 ft 2 kts 353°
2026-04-20 16:21 31.72067 35.99009 2408 ft 2 kts 358°
2026-04-20 16:21 31.72050 35.99009 2408 ft 2 kts
2026-04-20 16:21 31.72034 35.99005 2407 ft 2 kts 22°
2026-04-20 16:22 31.72020 35.98995 2408 ft 2 kts 47°
2026-04-20 16:22 31.72011 35.98979 2409 ft 2 kts 69°
2026-04-20 16:22 31.72007 35.98962 2407 ft 2 kts 77°
2026-04-20 16:22 31.72005 35.98953 2407 ft 1 kts 79°
2026-04-20 16:23 31.72004 35.98950 2410 ft 0 kts 80°
2026-04-20 16:32 31.72009 35.98982 2409 ft 7 kts 80°
2026-04-20 16:32 31.72022 35.99069 2408 ft 14 kts 80°
2026-04-20 16:33 31.72040 35.99162 2409 ft 13 kts 69°
2026-04-20 16:33 31.72073 35.99260 2409 ft 14 kts 77°
2026-04-20 16:33 31.72092 35.99379 2410 ft 18 kts 79°
2026-04-20 16:33 31.72076 35.99475 2410 ft 13 kts 141°
2026-04-20 16:34 31.71972 35.99501 2411 ft 17 kts 164°
2026-04-20 16:34 31.71938 35.99585 2410 ft 11 kts 78°
2026-04-20 16:34 31.71955 35.99698 2409 ft 18 kts 80°
2026-04-20 16:34 31.71979 35.99866 2409 ft 24 kts 80°
2026-04-20 16:35 31.72012 36.00087 2409 ft 30 kts 79°
2026-04-20 16:35 31.72050 36.00353 2409 ft 35 kts 81°
2026-04-20 16:35 31.72085 36.00619 2408 ft 35 kts 82°
2026-04-20 16:35 31.72127 36.00910 2408 ft 39 kts 79°
2026-04-20 16:36 31.72176 36.01239 2409 ft 42 kts 80°
2026-04-20 16:36 31.72226 36.01580 2410 ft 34 kts 80°
2026-04-20 16:36 31.72246 36.01751 2408 ft 15 kts 95°
2026-04-20 16:36 31.72188 36.01803 2412 ft 10 kts 174°
2026-04-20 16:37 31.72165 36.01807 2410 ft 2 kts 171°
2026-04-20 16:37 31.72158 36.01808 2409 ft 0 kts 171°
2026-04-20 16:39 31.72153 36.01809 2409 ft 3 kts 171°
2026-04-20 16:39 31.72091 36.01820 2410 ft 19 kts 171°
2026-04-20 16:39 31.72021 36.01829 2411 ft 11 kts 181°
2026-04-20 16:40 31.71965 36.01718 2411 ft 23 kts 260°
2026-04-20 16:40 31.71903 36.01283 2409 ft 85 kts 261°
2026-04-20 16:40 31.71776 36.00380 2408 ft 135 kts 260°
2026-04-20 16:40 31.71599 35.99199 2741 ft 151 kts 262°
2026-04-20 16:41 31.71420 35.97985 3341 ft 147 kts 261°
2026-04-20 16:41 31.71232 35.96806 4017 ft 143 kts 261°
2026-04-20 16:41 31.71047 35.95630 4466 ft 154 kts 261°
2026-04-20 16:41 31.70952 35.94303 4724 ft 176 kts 280°
2026-04-20 16:42 31.71619 35.92984 5017 ft 206 kts 318°
2026-04-20 16:42 31.73010 35.92301 5443 ft 238 kts 351°
2026-04-20 16:42 31.74750 35.92616 5987 ft 270 kts 21°
2026-04-20 16:42 31.76297 35.93972 6596 ft 293 kts 50°
2026-04-20 16:43 31.77208 35.96098 7439 ft 301 kts 77°
2026-04-20 16:43 31.77480 35.98559 8372 ft 307 kts 84°
2026-04-20 16:43 31.77846 36.01028 9325 ft 311 kts 75°
2026-04-20 16:43 31.78564 36.03469 10233 ft 317 kts 65°
2026-04-20 16:44 31.79572 36.05889 10718 ft 338 kts 60°
2026-04-20 16:44 31.80786 36.08355 11090 ft 361 kts 57°
2026-04-20 16:44 31.82113 36.10894 11756 ft 370 kts 57°
2026-04-20 16:44 31.83478 36.13482 12587 ft 376 kts 57°
2026-04-20 16:45 31.84862 36.16121 13439 ft 381 kts 57°
2026-04-20 16:45 31.86258 36.18801 14207 ft 386 kts 57°
2026-04-20 16:45 31.87675 36.21536 14931 ft 392 kts 57°
2026-04-20 16:45 31.89081 36.24259 15624 ft 398 kts 57°
2026-04-20 16:46 31.90528 36.27065 16351 ft 403 kts 57°
2026-04-20 16:46 31.92003 36.29927 17042 ft 409 kts 57°
2026-04-20 16:46 31.93492 36.32819 17749 ft 414 kts 57°
2026-04-20 16:46 31.94994 36.35738 18401 ft 419 kts 57°
2026-04-20 16:47 31.96492 36.38653 18984 ft 424 kts 57°
2026-04-20 16:47 31.98043 36.41675 19570 ft 430 kts 57°
2026-04-20 16:47 31.99588 36.44685 20157 ft 434 kts 57°
2026-04-20 16:47 32.01156 36.47742 20724 ft 440 kts 57°
2026-04-20 16:48 32.02745 36.50845 21311 ft 445 kts 57°
2026-04-20 16:48 32.04339 36.53960 21800 ft 450 kts 57°
2026-04-20 16:48 32.05980 36.57169 22376 ft 454 kts 57°
2026-04-20 16:48 32.07603 36.60346 22923 ft 459 kts 57°
2026-04-20 16:49 32.09268 36.63608 23478 ft 465 kts 57°
2026-04-20 16:49 32.10912 36.66831 23923 ft 470 kts 57°
2026-04-20 16:49 32.12603 36.70150 24383 ft 474 kts 57°
2026-04-20 16:49 32.14317 36.73517 24791 ft 480 kts 57°
2026-04-20 16:50 32.16049 36.76921 24929 ft 482 kts 57°
2026-04-20 16:50 32.17761 36.80293 24958 ft 482 kts 57°
2026-04-20 16:50 32.19491 36.83701 24961 ft 481 kts 57°
2026-04-20 16:50 32.21346 36.86928 24956 ft 479 kts 49°
2026-04-20 16:51 32.23399 36.90019 24954 ft 479 kts 49°
2026-04-20 16:51 32.25464 36.93140 24957 ft 479 kts 49°
2026-04-20 16:51 32.26843 36.95233 24945 ft 479 kts 49°
2026-04-20 16:51 32.28899 36.98356 24945 ft 479 kts 50°
2026-04-20 16:52 32.31631 37.02513 25253 ft 484 kts 50°
2026-04-20 16:52 32.33034 37.04652 25597 ft 486 kts 50°
2026-04-20 16:52 32.35102 37.07804 26007 ft 490 kts 50°
2026-04-20 16:52 32.37203 37.11010 26395 ft 495 kts 50°
2026-04-20 16:53 32.39333 37.14264 26812 ft 499 kts 50°
2026-04-20 16:53 32.41458 37.17511 27180 ft 504 kts 50°
2026-04-20 16:53 32.43623 37.20824 27563 ft 508 kts 50°
2026-04-20 16:53 32.45785 37.24134 27921 ft 513 kts 50°
2026-04-20 16:54 32.47974 37.27488 28271 ft 517 kts 50°
2026-04-20 16:54 32.50164 37.30844 28626 ft 521 kts 50°
2026-04-20 16:54 32.52378 37.34239 28963 ft 525 kts 50°
2026-04-20 16:54 32.54637 37.37708 29273 ft 530 kts 50°
2026-04-20 16:55 32.56910 37.41200 29612 ft 534 kts 50°
2026-04-20 16:55 32.59158 37.44659 29944 ft 537 kts 50°
2026-04-20 16:55 32.61447 37.48183 30241 ft 540 kts 50°
2026-04-20 16:55 32.63760 37.51748 30532 ft 544 kts 50°
2026-04-20 16:56 32.66054 37.55287 30836 ft 547 kts 50°
2026-04-20 16:56 32.68381 37.58880 31178 ft 548 kts 50°
2026-04-20 16:56 32.70727 37.62506 31552 ft 549 kts 50°
2026-04-20 16:56 32.72960 37.66111 31916 ft 551 kts 55°
2026-04-20 16:57 32.74861 37.70099 32299 ft 553 kts 64°
2026-04-20 16:57 32.76310 37.74331 32666 ft 553 kts 72°
2026-04-20 16:57 32.77562 37.78669 33015 ft 554 kts 71°
2026-04-20 16:57 32.78821 37.82971 33357 ft 555 kts 71°
2026-04-20 16:58 32.80092 37.87304 33698 ft 556 kts 71°
2026-04-20 16:58 32.81350 37.91671 34047 ft 555 kts 72°
2026-04-20 16:58 32.82589 37.96050 34394 ft 554 kts 72°
2026-04-20 16:58 32.83793 38.00332 34722 ft 553 kts 72°
2026-04-20 16:59 32.85015 38.04675 35030 ft 552 kts 72°
2026-04-20 16:59 32.86238 38.09008 35356 ft 551 kts 72°
2026-04-20 16:59 32.87477 38.13354 35673 ft 550 kts 71°
2026-04-20 16:59 32.88702 38.17639 35951 ft 550 kts 71°
2026-04-20 17:00 32.91150 38.26224 36559 ft 547 kts 71°
2026-04-20 17:00 32.92375 38.30538 36844 ft 546 kts 71°
2026-04-20 17:00 32.93578 38.34781 37117 ft 546 kts 71°
2026-04-20 17:01 32.94794 38.39074 37391 ft 545 kts 71°
2026-04-20 17:01 32.96003 38.43353 37663 ft 544 kts 71°
2026-04-20 17:01 32.97199 38.47592 37932 ft 543 kts 71°
2026-04-20 17:01 32.98384 38.51796 38171 ft 542 kts 71°
2026-04-20 17:02 32.99604 38.56130 38388 ft 542 kts 71°
2026-04-20 17:02 33.00788 38.60347 38603 ft 541 kts 71°
2026-04-20 17:02 33.01983 38.64607 38783 ft 540 kts 71°
2026-04-20 17:02 33.03155 38.68802 39146 ft 531 kts 70°
2026-04-20 17:03 33.04311 38.72951 38984 ft 521 kts 70°
2026-04-20 17:03 33.06576 38.81059 38906 ft 513 kts 70°
2026-04-20 17:04 33.08757 38.89188 38905 ft 520 kts 75°
2026-04-20 17:04 33.09909 38.97698 38897 ft 519 kts 88°
2026-04-20 17:05 33.09986 39.06313 38895 ft 519 kts 91°
2026-04-20 17:05 33.10002 39.14878 38896 ft 519 kts 91°
2026-04-20 17:06 33.10009 39.23475 38893 ft 518 kts 91°
2026-04-20 17:06 33.10003 39.32072 38893 ft 518 kts 92°
2026-04-20 17:07 33.09989 39.40634 38885 ft 518 kts 92°
2026-04-20 17:07 33.09970 39.49256 38888 ft 517 kts 92°
2026-04-20 17:08 33.09944 39.57834 38884 ft 517 kts 92°
2026-04-20 17:08 33.09912 39.66406 38883 ft 517 kts 92°
2026-04-20 17:09 33.09874 39.75032 38881 ft 517 kts 92°
2026-04-20 17:09 33.09830 39.83556 38858 ft 518 kts 92°
2026-04-20 17:09 33.09806 39.87812 38504 ft 521 kts 92°
2026-04-20 17:10 33.09782 39.92082 38764 ft 514 kts 92°
2026-04-20 17:10 33.09756 39.96350 38867 ft 515 kts 92°
2026-04-20 17:10 33.09726 40.00658 38874 ft 518 kts 92°
2026-04-20 17:11 33.09662 40.09194 38872 ft 517 kts 92°
2026-04-20 17:11 33.09593 40.17776 38869 ft 517 kts 92°
2026-04-20 17:12 33.09517 40.26350 38864 ft 517 kts 92°
2026-04-20 17:12 33.09436 40.34912 38866 ft 517 kts 93°
2026-04-20 17:13 33.09348 40.43520 38860 ft 517 kts 93°
2026-04-20 17:13 33.09255 40.52061 38857 ft 517 kts 93°
2026-04-20 17:14 33.09157 40.60617 38853 ft 517 kts 93°
2026-04-20 17:14 33.09051 40.69217 38854 ft 517 kts 93°
2026-04-20 17:15 33.08941 40.77743 38852 ft 517 kts 93°
2026-04-20 17:15 33.08824 40.86362 38850 ft 517 kts 93°
2026-04-20 17:16 33.08701 40.94925 38848 ft 518 kts 93°
2026-04-20 17:16 33.08572 41.03541 38847 ft 518 kts 94°
2026-04-20 17:17 33.08438 41.12087 38847 ft 518 kts 94°
2026-04-20 17:17 33.08289 41.20688 38842 ft 518 kts 95°
2026-04-20 17:18 33.07947 41.29211 38843 ft 518 kts 96°
2026-04-20 17:18 33.07571 41.37811 38846 ft 518 kts 96°
2026-04-20 17:19 33.07214 41.46388 38848 ft 519 kts 96°
2026-04-20 17:19 33.06857 41.54999 38855 ft 519 kts 96°
2026-04-20 17:20 33.06497 41.63561 38855 ft 519 kts 96°
2026-04-20 17:20 33.06128 41.72167 38851 ft 518 kts 96°
2026-04-20 17:21 33.05755 41.80738 38485 ft 518 kts 96°
2026-04-20 17:21 33.05566 41.85042 37832 ft 518 kts 96°
2026-04-20 17:21 33.05374 41.89337 37056 ft 520 kts 96°
2026-04-20 17:21 33.05181 41.93647 36259 ft 521 kts 96°
2026-04-20 17:22 33.04988 41.97919 35461 ft 523 kts 96°
2026-04-20 17:22 33.04790 42.02271 34671 ft 524 kts 96°
2026-04-20 17:22 33.04593 42.06575 33942 ft 523 kts 96°
2026-04-20 17:22 33.04394 42.10901 33068 ft 522 kts 96°
2026-04-20 17:23 33.04192 42.15242 32105 ft 524 kts 96°
2026-04-20 17:23 33.03988 42.19605 31150 ft 526 kts 96°
2026-04-20 17:23 33.03784 42.23910 30226 ft 527 kts 96°
2026-04-20 17:23 33.03577 42.28279 29182 ft 528 kts 96°
2026-04-20 17:24 33.03368 42.32660 28480 ft 522 kts 96°
2026-04-20 17:24 33.03175 42.36949 28076 ft 510 kts 95°
2026-04-20 17:24 33.03014 42.41094 27519 ft 503 kts 95°
2026-04-20 17:24 33.02858 42.45243 26947 ft 496 kts 95°
2026-04-20 17:25 33.02702 42.49316 26375 ft 490 kts 95°
2026-04-20 17:25 33.02542 42.53379 25808 ft 485 kts 96°
2026-04-20 17:25 33.02383 42.57333 25217 ft 481 kts 96°
2026-04-20 17:25 33.02220 42.61320 24678 ft 476 kts 96°
2026-04-20 17:26 33.02057 42.65255 24128 ft 472 kts 96°
2026-04-20 17:26 33.01896 42.69126 23517 ft 470 kts 96°
2026-04-20 17:26 33.01734 42.72972 22990 ft 464 kts 96°
2026-04-20 17:26 33.01573 42.76801 22444 ft 458 kts 96°
2026-04-20 17:27 33.01413 42.80565 21904 ft 453 kts 96°
2026-04-20 17:27 33.01254 42.84270 21375 ft 448 kts 96°
2026-04-20 17:27 33.01095 42.87963 20838 ft 443 kts 96°
2026-04-20 17:27 33.00935 42.91629 20310 ft 439 kts 96°
2026-04-20 17:28 33.00776 42.95259 19786 ft 435 kts 96°
2026-04-20 17:28 33.00618 42.98837 19225 ft 433 kts 96°
2026-04-20 17:28 33.00460 43.02400 18742 ft 429 kts 96°
2026-04-20 17:28 33.00301 43.05947 18187 ft 426 kts 96°
2026-04-20 17:29 33.00144 43.09425 17658 ft 423 kts 96°
2026-04-20 17:29 32.99986 43.12921 17136 ft 418 kts 96°
2026-04-20 17:29 32.99831 43.16328 16636 ft 414 kts 96°
2026-04-20 17:29 32.99674 43.19747 16136 ft 409 kts 96°
2026-04-20 17:30 32.99519 43.23113 15639 ft 405 kts 96°
2026-04-20 17:30 32.99363 43.26469 15145 ft 402 kts 96°
2026-04-20 17:30 32.99210 43.29754 14658 ft 398 kts 95°
2026-04-20 17:30 32.99056 43.33036 14219 ft 394 kts 95°
2026-04-20 17:31 32.98903 43.36278 13935 ft 393 kts 95°
2026-04-20 17:31 32.98746 43.39562 13695 ft 398 kts 95°
2026-04-20 17:31 32.98589 43.42851 13441 ft 396 kts 95°
2026-04-20 17:31 32.98531 43.46098 13173 ft 394 kts 85°
2026-04-20 17:32 32.99206 43.49217 12913 ft 390 kts 64°
2026-04-20 17:32 33.00667 43.51906 12659 ft 384 kts 47°
2026-04-20 17:32 33.02503 43.54220 12188 ft 382 kts 41°
2026-04-20 17:32 33.04411 43.56435 11708 ft 379 kts 41°
2026-04-20 17:33 33.06249 43.58606 11227 ft 375 kts 43°
2026-04-20 17:33 33.08070 43.60833 10727 ft 371 kts 44°
2026-04-20 17:33 33.09829 43.63044 10365 ft 364 kts 45°
2026-04-20 17:33 33.11519 43.65204 10168 ft 344 kts 45°
2026-04-20 17:34 33.13095 43.67230 9947 ft 326 kts 45°
2026-04-20 17:34 33.14623 43.69196 9497 ft 321 kts 45°
2026-04-20 17:34 33.16036 43.71013 9310 ft 312 kts 45°
2026-04-20 17:34 33.17514 43.72913 9181 ft 315 kts 45°
2026-04-20 17:35 33.19006 43.74832 8973 ft 315 kts 45°
2026-04-20 17:35 33.20315 43.76517 8655 ft 314 kts 45°
2026-04-20 17:35 33.21803 43.78433 8316 ft 312 kts 45°
2026-04-20 17:35 33.23276 43.80333 7958 ft 308 kts 45°
2026-04-20 17:36 33.24714 43.82188 7593 ft 305 kts 45°
2026-04-20 17:36 33.26143 43.84032 7268 ft 302 kts 45°
2026-04-20 17:36 33.27559 43.85860 6924 ft 298 kts 45°
2026-04-20 17:36 33.28973 43.87685 6569 ft 296 kts 45°
2026-04-20 17:37 33.30350 43.89465 6245 ft 292 kts 45°
2026-04-20 17:37 33.31733 43.91253 5897 ft 290 kts 45°
2026-04-20 17:37 33.33098 43.93020 5546 ft 286 kts 45°
2026-04-20 17:37 33.34419 43.94728 5240 ft 283 kts 45°
2026-04-20 17:38 33.35757 43.96461 4917 ft 280 kts 45°
2026-04-20 17:38 33.37067 43.98157 4589 ft 277 kts 45°
2026-04-20 17:38 33.38367 43.99840 4254 ft 274 kts 46°
2026-04-20 17:38 33.39222 44.00946 4055 ft 272 kts 46°
2026-04-20 17:39 33.40916 44.03142 3685 ft 266 kts 46°
2026-04-20 17:39 33.41763 44.04241 3633 ft 272 kts 46°
2026-04-20 17:39 33.43416 44.06390 3592 ft 254 kts 46°
2026-04-20 17:39 33.44579 44.07905 3590 ft 240 kts 48°
2026-04-20 17:40 33.45186 44.09006 3576 ft 230 kts 68°
2026-04-20 17:40 33.45381 44.10811 3514 ft 224 kts 103°
2026-04-20 17:40 33.44690 44.12513 3486 ft 227 kts 137°
2026-04-20 17:40 33.43359 44.13394 3349 ft 219 kts 165°
2026-04-20 17:41 33.41895 44.13996 3064 ft 223 kts 160°
2026-04-20 17:41 33.40507 44.14769 2776 ft 222 kts 154°
2026-04-20 17:41 33.39162 44.15660 2490 ft 220 kts 151°
2026-04-20 17:41 33.37900 44.16539 2248 ft 198 kts 152°
2026-04-20 17:42 33.36760 44.17325 1962 ft 177 kts 151°
2026-04-20 17:42 33.35746 44.18025 1743 ft 158 kts 150°
2026-04-20 17:42 33.34864 44.18635 1566 ft 137 kts 150°
2026-04-20 17:42 33.34059 44.19191 1382 ft 135 kts 150°
2026-04-20 17:43 33.33256 44.19746 1213 ft 134 kts 150°
2026-04-20 17:43 33.32436 44.20312 1029 ft 138 kts 150°
2026-04-20 17:43 33.31611 44.20880 865 ft 134 kts 149°
2026-04-20 17:43 33.30919 44.21360 725 ft 137 kts 149°
2026-04-20 17:44 33.30092 44.21929 552 ft 136 kts 150°
2026-04-20 17:44 33.29384 44.22417 395 ft 138 kts 150°
2026-04-20 17:44 33.28570 44.22980 242 ft 133 kts 150°
2026-04-20 17:44 33.27779 44.23530 139 ft 121 kts 150°
2026-04-20 17:45 33.27240 44.23901 137 ft 64 kts 150°
2026-04-20 17:45 33.26943 44.24106 140 ft 43 kts 151°
2026-04-20 17:45 33.26696 44.24272 139 ft 40 kts 150°
2026-04-20 17:45 33.26520 44.24374 139 ft 21 kts 165°
2026-04-20 17:46 33.26372 44.24403 138 ft 22 kts 182°
2026-04-20 17:46 33.26268 44.24376 139 ft 10 kts 228°
2026-04-20 17:46 33.26280 44.24300 139 ft 12 kts 322°
2026-04-20 17:46 33.26361 44.24246 139 ft 15 kts 330°
2026-04-20 17:47 33.26465 44.24173 139 ft 19 kts 329°
2026-04-20 17:47 33.26592 44.24085 139 ft 23 kts 331°
2026-04-20 17:47 33.26741 44.23984 140 ft 26 kts 330°
2026-04-20 17:47 33.26898 44.23875 140 ft 27 kts 329°
2026-04-20 17:48 33.27072 44.23755 139 ft 30 kts 330°
2026-04-20 17:48 33.27260 44.23626 139 ft 32 kts 330°
2026-04-20 17:48 33.27368 44.23523 139 ft 16 kts 281°
2026-04-20 17:48 33.27332 44.23417 139 ft 14 kts 239°
2026-04-20 17:49 33.27279 44.23308 139 ft 17 kts 239°
2026-04-20 17:49 33.27217 44.23179 139 ft 20 kts 240°
2026-04-20 17:49 33.27130 44.23178 139 ft 8 kts 121°
2026-04-20 17:49 33.27094 44.23249 139 ft 12 kts 121°
2026-04-20 17:50 33.27068 44.23256 139 ft 4 kts 214°
2026-04-20 17:50 33.27041 44.23225 139 ft 7 kts 225°
2026-04-20 17:50 33.27020 44.23200 139 ft 3 kts 226°
2026-04-20 17:50 33.27011 44.23189 139 ft 0 kts 226°